Погода в Демянске

Погода в Демянске : погода сейчас, прогноз погоды и архив. Всё, что Вы хотите узнать о погоде в Демянске!

Поиск расширенной информации на нашем сайте:

Другие новости

Новости СМИ2

Главная страница сайта

Новости сайта

03.07.2017

Напоминаем, что на нашем специализированном сайте Метеоцентр.Азия вы можете получить высокодетализированные автоматические прогнозы погоды по пунктам России, СНГ и мира в авиационном формате (включающие направление и скорость ветра, видимость, явления погоды, количество и форму облачности, нижнюю и верхнюю границу облачности).

Рекомендуем: Печать наклеек с логотипом - распродажа наклейки с логотипом rpkactive.com.ua.

Погода в Демянске - сегодня

Время (UTC), дата Ветер
(°,м/с) 
Видим.   Явления Облачность Т
(°С)
Тd
(°С)
f(%) Тe
(°С)
Pmin
(гПа)
dP
(гПа)
Po
(мм)
O2
(г/м3)
Тmin Tmax R s Состояние
почвы
09 14.02.18 130 (ЮВ) н/о    н/о 
-6.5 -13.2 59 -9  1029.3  0.8  766  317           
12 14.02.18 110 (В) н/о    н/о 
-4.1 -12.5 52 -5  1029.2  0.1  766  314           
15 14.02.18 100 (В) н/о    н/о 
-6.1 -11.8 64 -6  1029.9  0.7  766  317           
18 14.02.18 110 (В) 20000 м    ясно 
-10.7 -12.6 86 -11  1031.1  767  323    -4.1       
21 14.02.18 110 (В) н/о    н/о 
-14.2 -15.7 88 -14  1031.7  0.6  768  328           
00 15.02.18 090 (В) н/о    н/о 
-13 -14.9 86 -13  1032.2  0.5  768  326           
03 15.02.18 100 (В) н/о    н/о 
-13.4 -15.5 84 -16  1032.6  0.4  768  327  -14.6         
09 15.02.18 080 (В) н/о    н/о 
-7.3 -12.7 65 -9  1033.4  0.4  769  320           
12 15.02.18 100 (В) н/о    н/о 
-5 -11.2 62 -6  1032.6  -0.7  768  317           
15 15.02.18 100 (В) н/о    н/о 
-6.5 -10.8 71 -6  1032.1  -0.6  768  318           
21 15.02.18 130 (ЮВ) н/о    н/о 
-6.2 -8.8 82 -6  1030.9  -0.5  767  317           
00 16.02.18 130 (ЮВ) н/о    н/о 
-6.2 -8.1 86 -6  1030.2  -0.6  767  317           
03 16.02.18 150 (ЮВ) н/о    н/о 
-5.9 -8.1 84 -6  1029.5  -0.6  766  316  -8.9         
09 16.02.18 170 (Ю) н/о    н/о 
-3.5 -7.4 74 -5  1028.4  -0.4  765  313           
12 16.02.18 120 (ЮВ) н/о    н/о 
-2.3 -6.1 75 -3  1027.4  -1  765  311           
15 16.02.18 120 (ЮВ) н/о    н/о 
-2.9 -5.9 80 -4  1026.2  -1.2  764  312           
21 16.02.18 130 (ЮВ) н/о    н/о 
-3.3 -6.1 81 -4  1024.8  -0.6  763  312           
00 17.02.18 120 (ЮВ) н/о    н/о 
-3.6 -5.9 84 -3  1024.1  -0.7  762  312           
03 17.02.18 100 (В) н/о    н/о 
-5.1 -6.6 89 -5  1023  -0.7  761  313  -5.1         
09 17.02.18 090 (В) н/о    н/о 
-1.7 -5.3 76 -1  1021.3  -0.9  760  309           
12 17.02.18 110 (В) н/о    н/о 
-1.2 -3.5 84 -2  1020.3  -1  759  308           
15 17.02.18 120 (ЮВ) н/о    н/о 
-1.7 -3.3 89 -1  1019.8  -0.5  759  308           
21 17.02.18 100 (В) н/о    н/о 
-3 -4.8 87 -3  1019.4  -0.4  759  310           
00 18.02.18 100 (В) н/о    н/о 
-2.9 -4.8 87 -2  1019.3  759  310           
03 18.02.18 100 (В) н/о    н/о 
-3.2 -5.1 87 -3  1018.7  -0.6  758  310  -3.8         
Время (UTC), дата Ветер
(°,м/с) 
Видим.   Явления Облачность Т
(°С)
Тd
(°С)
f(%) Тe
(°С)
Pmin
(гПа)
dP
(гПа)
Po
(мм)
O2
(г/м3)
Тmin Tmax R s Состояние
почвы

Для получения пояснительной информации подведите курсор к названию столбца.

ПОГОДА в Демянске - архив

Всё, что Вы хотите узнать о погоде в Демянске - удобно и подробно!

Выберите нужную дату (начиная с 1 января 2015* года) и нажмите кнопку "Найти".
Будут отображены архивные сводки погоды по пункту Демянск, начиная с указанной даты.


Отображать данные в формате CSV (для использования в таблицах Excel)


Внимание! Наш архив погоды предназначен исключительно для личного некоммерческого использования в познавательных целях. Если Вам необходимы официальные справки о состоянии погоды (для производственных, юридических, коммерческих и т.п. целей), обращайтесь в органы Росгидромета.

*Примечание: данная дата относится к архиву по метеостанциям СССР (Россия, СНГ, Балтия).
Архив по метеостанциям Зарубежной Европы и Азии (кроме Китая) хранится 10 дней, по другим регионам земного шара (Китай, Африка, Америка, Австралия, Океания) - 1 день.

Демянск - район местоположения метеостанции


Название, широта, долгота, высота метеостанции:
Демянск 57.6°ш. 32.5°д. 62 м над ур. моря [Российская Федерация]

Дополнительная информация

В oтличие oт бoльшинства пoгoдных сайтoв мы публикуем пoдрoбную метеoинфoрмацию в детальнoм прoфессиoнальнoм фoрмате.

Характеристики температуры и влажнoсти вoздуха измеряются на высoте 2 м в тени вдали oт зданий и деревьев.
Скoрoсть ветра измеряется на высoте 10 м (на урoвне рoста челoвека скoрoсть ветра ниже в 1.5-2 раза). Если метеoстанция нахoдится в гoрoде или в лесу, тo скoрoсть ветра занижена на 2-4 м/с пo сравнению с oткрытым местoм. Скoрoсть ветра над акватoриями крупных рек и oзёр, а также на вершинах хoлмoв на 2-5 м/с выше, чем в oбычных услoвиях.
Атмoсфернoе давление в разных тoчках местнoсти мoжет значительнo oтличаться oт давления на метеoстанции, в зависимoсти oт услoвий рельефа (при пoдъёме на 10 м давление пoнижается примернo на 1 мм рт.ст.).